Погода в Сиктяхе

Россия / Республика Саха (Якутия)     69°54′41″N   125°06′17″E
темп.,
°C
ветер,
м/с
пор.,
м/с
влажн.,
%
обл.,
%
осадки,
мм/ч
давл.,
гПа
погр.,
м
27 февраля, сб
сб2700:00−33св009299 0.0 103219
03:00−32ююв1198100 0.1 103154
06:00−32ю1198100 0.1 103128
09:00−33ююв119899 0.1 103019
12:00−32ю129598 0.0 1030190
15:00−31ю129599 0.1 1029209
18:00−37ююв1110059 0.0 102919
21:00−37ссв129838 0.0 102819
28 февраля, вс
вс2800:00−37с23950 0.0 102719
03:00−36с34930 0.0 102522
06:00−36с349213 0.0 102434
09:00−35с449147 0.0 102346
12:00−31ссз249182 0.0 1022145
15:00−30с239290 0.0 102281
18:00−33ссв229296 0.0 102319
21:00−35ссв229256 0.0 102419
1 марта, пн
пн100:00−37св229421 0.0 102419
03:00−38всв129730 0.0 102419
06:00−39всв1110082 0.0 102418
09:00−39в129988 0.0 102519
12:00−35юв129595 0.0 1025127
15:00−35юв239598 0.0 1025177
18:00−38юв1110092 0.0 102619
21:00−38в1110095 0.0 102619
2 марта, вт
вт200:00−38всв12100100 0.0 102719
03:00−38всв229899 0.0 102618
06:00−38всв229898 0.0 102719
09:00−39св229793 0.0 102718
12:00−35св229381 0.0 1027101
15:00−34ссв119483 0.0 102749
18:00−36ссв229289 0.0 102819
21:00−37ссв229186 0.0 102919
3 марта, ср
ср300:00−38с229261 0.0 102818
03:00−38с229048 0.0 102818
06:00−39с239136 0.0 102818
09:00−38с339218 0.0 102820
12:00−35с35910 0.0 1026185
15:00−33с35910 0.0 1025260
18:00−36ссз449232 0.0 102551
21:00−36с469155 0.0 1023114